DW2633 Weather Reports


time (UTC)temp
F
wind
direction
speed
knots
gust
knots
rain 1hr
in
rain 24hr
in
rain mn
in
humidity
%
barometer
mb
20260831082508 59 132 0.0 0.0 0.00 0.00 0.00 93 1018.2
20260831082008 59 167 0.0 0.0 0.00 0.00 0.00 93 1018.2
20260831081507 59 167 0.9 0.0 0.00 0.00 0.00 92 1018.2
20260831081008 59 157 1.7 0.0 0.00 0.00 0.00 92 1018.1
20260831080508 59 144 2.6 0.0 0.00 0.00 0.00 92 1018.0
20260831080004 59 144 2.6 0.0 0.00 0.00 0.00 92 1017.9
20260831075503 59 138 2.6 0.0 0.00 0.00 0.00 92 1017.8
20260831075005 60 135 3.5 0.0 0.00 0.00 0.00 92 1017.8
20260831074505 60 116 3.5 0.0 0.00 0.00 0.00 92 1017.7
20260831074004 60 128 4.3 0.0 0.00 0.00 0.00 92 1017.7
20260831073503 60 126 4.3 0.0 0.00 0.00 0.00 91 1017.6
20260831073004 60 129 3.5 0.0 0.00 0.00 0.00 91 1017.7
20260831072500 60 134 2.6 0.0 0.00 0.00 0.00 91 1017.7
20260831072100 60 153 3.5 0.0 0.00 0.00 0.00 91 1017.7
20260831071600 60 155 4.3 0.0 0.00 0.00 0.00 91 1017.7
20260831071059 61 136 3.5 0.0 0.00 0.00 0.00 90 1017.7
20260831070559 61 143 3.5 0.0 0.00 0.00 0.00 90 1017.7
20260831070058 61 134 4.3 0.0 0.00 0.00 0.00 90 1017.8
20260831065557 61 129 3.5 0.0 0.00 0.00 0.00 90 1017.8
20260831065056 61 132 3.5 0.0 0.00 0.00 0.00 89 1017.8
20260831064555 62 132 3.5 0.0 0.00 0.00 0.00 89 1017.7
20260831064054 62 142 2.6 0.0 0.00 0.00 0.00 89 1017.7
20260831063553 62 132 2.6 0.0 0.00 0.00 0.00 88 1017.8
20260831063052 63 130 2.6 0.0 0.00 0.00 0.00 88 1017.8
20260831062552 63 128 3.5 0.0 0.00 0.00 0.00 87 1017.8
20260831062051 63 127 2.6 0.0 0.00 0.00 0.00 87 1017.7
20260831061551 64 123 1.7 0.0 0.00 0.00 0.00 86 1017.7
20260831061052 64 122 1.7 0.0 0.00 0.00 0.00 86 1017.7
20260831060550 65 121 1.7 0.0 0.00 0.00 0.00 85 1017.6
20260831060057 65 75 3.5 0.0 0.00 0.00 0.00 85 1017.6
20260831055553 65 64 4.3 0.0 0.00 0.00 0.00 87 1017.5
20260831055050 65 355 3.5 0.0 0.00 0.00 0.00 86 1017.5
20260831054550 66 347 4.3 0.0 0.00 0.00 0.00 87 1017.4
20260831054051 66 338 4.3 0.0 0.00 0.00 0.00 86 1017.5
20260831053550 66 344 5.2 0.0 0.00 0.00 0.00 86 1017.5
20260831053049 66 337 4.3 0.0 0.00 0.00 0.00 86 1017.6
20260831052548 66 329 4.3 0.0 0.00 0.00 0.00 86 1017.6
20260831052049 66 330 4.3 0.0 0.00 0.00 0.00 86 1017.7
20260831051553 66 5 4.3 0.0 0.00 0.00 0.00 87 1017.8
20260831051046 65 340 6.1 0.0 0.00 0.00 0.00 88 1017.8
20260831050545 64 349 7.0 0.0 0.00 0.00 0.00 89 1017.8
20260831050044 63 336 6.1 0.0 0.00 0.00 0.00 92 1017.7
20260831045544 63 311 5.2 0.0 0.00 0.00 0.00 92 1017.8
20260831045043 63 297 6.1 0.0 0.00 0.00 0.00 92 1017.8
20260831044544 63 282 7.0 0.0 0.00 0.00 0.00 92 1017.7
20260831044041 63 250 7.8 0.0 0.00 0.00 0.00 92 1017.7
20260831043542 63 265 7.8 0.0 0.00 0.00 0.00 92 1017.6
20260831043040 63 299 7.8 0.0 0.00 0.00 0.00 92 1017.6
20260831042541 63 270 7.8 0.0 0.00 0.00 0.00 92 1017.6
20260831042040 63 257 8.7 0.0 0.00 0.00 0.00 92 1017.5
20260831041630 63 258 8.7 0.0 0.00 0.00 0.00 92 1017.5
20260831041039 63 262 7.8 0.0 0.00 0.00 0.00 91 1017.5
20260831040537 63 242 7.0 0.0 0.00 0.00 0.00 91 1017.6
20260831040036 63 254 7.0 0.0 0.00 0.00 0.00 91 1017.6
20260831035536 64 252 7.8 0.0 0.00 0.00 0.00 91 1017.6
20260831035040 64 252 7.8 0.0 0.00 0.00 0.00 91 1017.6
20260831034536 64 252 7.8 0.0 0.00 0.00 0.00 91 1017.6
20260831034035 64 248 8.7 0.0 0.00 0.00 0.00 91 1017.7
20260831033535 64 260 8.7 0.0 0.00 0.00 0.00 90 1017.7
20260831033035 64 249 9.6 0.0 0.00 0.00 0.00 89 1017.8
20260831032534 64 257 6.1 0.0 0.00 0.00 0.00 89 1017.7
20260831032038 64 243 0.9 0.0 0.00 0.00 0.00 88 1017.7
20260831031535 64 173 0.0 0.0 0.00 0.00 0.00 88 1017.8
20260831031036 64 173 0.9 0.0 0.00 0.00 0.00 88 1017.8
20260831030538 64 211 1.7 0.0 0.00 0.00 0.00 87 1017.7
20260831030036 64 242 1.7 0.0 0.00 0.00 0.00 87 1017.7
20260831025534 65 221 2.6 0.0 0.00 0.00 0.00 87 1017.9
20260831025034 65 227 4.3 0.0 0.00 0.00 0.00 87 1017.9
20260831024540 65 257 4.3 0.0 0.00 0.00 0.00 87 1017.8
20260831024035 65 245 5.2 0.0 0.00 0.00 0.00 86 1017.8
20260831023536 65 252 4.3 0.0 0.00 0.00 0.00 86 1017.8
20260831023033 65 248 4.3 0.0 0.00 0.00 0.00 86 1017.7
20260831022532 65 234 5.2 0.0 0.00 0.00 0.00 86 1017.8
20260831022035 65 216 5.2 0.0 0.00 0.00 0.00 86 1017.8
20260831021542 65 223 3.5 0.0 0.00 0.00 0.00 86 1017.7
20260831021033 65 233 3.5 0.0 0.00 0.00 0.00 86 1017.8
20260831020535 65 224 3.5 0.0 0.00 0.00 0.00 86 1017.8
20260831020034 65 225 3.5 0.0 0.00 0.00 0.00 86 1017.8
20260831015532 65 223 2.6 0.0 0.00 0.00 0.00 85 1017.8
20260831015032 66 197 1.7 0.0 0.00 0.00 0.00 85 1017.7
20260831014532 66 217 1.7 0.0 0.00 0.00 0.00 85 1017.8
20260831014032 66 215 1.7 0.0 0.00 0.00 0.00 85 1017.7
20260831013532 66 219 0.9 0.0 0.00 0.00 0.00 85 1017.7
20260831013031 66 213 0.0 0.0 0.00 0.00 0.00 85 1017.7
20260831012531 66 220 0.9 0.0 0.00 0.00 0.00 85 1017.7
20260831012031 66 223 1.7 0.0 0.00 0.00 0.00 85 1017.7
20260831011544 66 213 2.6 0.0 0.00 0.00 0.00 85 1017.6
20260831011031 66 225 2.6 0.0 0.00 0.00 0.00 84 1017.5
20260831010530 66 226 4.3 0.0 0.00 0.00 0.00 85 1017.5
20260831010033 66 227 6.1 0.0 0.00 0.00 0.00 85 1017.4
20260831005531 66 249 7.0 0.0 0.00 0.00 0.00 86 1017.3
20260831005032 66 255 7.8 0.0 0.00 0.00 0.00 86 1017.2
20260831004530 66 247 7.8 0.0 0.00 0.00 0.00 86 1017.0
20260831004029 66 236 7.8 0.0 0.00 0.00 0.00 86 1017.1
20260831003533 67 263 7.8 0.0 0.00 0.00 0.00 86 1017.0
20260831003034 67 257 8.7 0.0 0.00 0.00 0.00 86 1016.9
20260831002529 67 275 9.6 0.0 0.00 0.00 0.00 86 1016.9
20260831002030 67 277 9.6 0.0 0.00 0.00 0.00 85 1016.9
20260831001532 67 282 10.4 0.0 0.00 0.00 0.00 85 1016.9
20260831001031 67 275 11.3 0.0 0.00 0.00 0.00 86 1016.7
20260831000529 67 265 11.3 0.0 0.00 0.00 0.00 86 1016.7
20260831000032 67 266 11.3 0.0 0.00 0.00 0.00 86 1016.7
20260830235529 67 277 11.3 0.0 0.00 0.00 0.00 86 1016.3
20260830235028 67 271 11.3 0.0 0.00 0.00 0.00 85 1016.4
20260830234528 67 261 10.4 0.0 0.00 0.00 0.00 85 1016.4
20260830234030 67 264 10.4 0.0 0.00 0.00 0.00 85 1016.2
20260830233528 67 241 10.4 0.0 0.00 0.00 0.00 86 1016.2
20260830233027 67 360 10.4 0.0 0.00 0.00 0.00 85 1016.3
20260830232527 67 264 11.3 0.0 0.00 0.00 0.00 85 1016.2
20260830232028 67 266 11.3 0.0 0.00 0.00 0.00 84 1016.2
20260830231527 67 256 9.6 0.0 0.00 0.00 0.00 85 1016.1
20260830231031 67 280 9.6 0.0 0.00 0.00 0.00 84 1016.1
20260830230526 67 275 10.4 0.0 0.00 0.00 0.00 84 1016.1
20260830230027 67 267 10.4 0.0 0.00 0.00 0.00 84 1016.1
20260830225526 67 268 8.7 0.0 0.00 0.00 0.00 85 1016.2
20260830225026 67 260 6.1 0.0 0.00 0.00 0.00 84 1016.2
20260830224526 67 244 6.1 0.0 0.00 0.00 0.00 85 1016.1
20260830224028 67 244 7.0 0.0 0.00 0.00 0.00 85 1016.1
20260830223526 67 247 8.7 0.0 0.00 0.00 0.00 85 1016.1
20260830223026 67 250 10.4 0.0 0.00 0.00 0.00 83 1016.1
20260830222524 68 271 11.3 0.0 0.00 0.00 0.00 84 1016.1
20260830222024 67 270 11.3 0.0 0.00 0.00 0.00 84 1016.1
20260830221524 67 284 11.3 0.0 0.00 0.00 0.00 83 1016.2
20260830221024 67 281 11.3 0.0 0.00 0.00 0.00 83 1016.2
20260830220524 67 281 10.4 0.0 0.00 0.00 0.00 83 1016.3
20260830220024 68 288 10.4 0.0 0.00 0.00 0.00 82 1016.3
20260830215524 67 264 8.7 0.0 0.00 0.00 0.00 83 1016.3
20260830215023 67 270 7.0 0.0 0.00 0.00 0.00 81 1016.3
20260830214523 67 281 7.0 0.0 0.00 0.00 0.00 81 1016.3
20260830214024 68 294 8.7 0.0 0.00 0.00 0.00 82 1016.3
20260830213523 68 311 9.6 0.0 0.00 0.00 0.00 81 1016.3
20260830213031 68 299 10.4 0.0 0.00 0.00 0.00 81 1016.4
20260830212523 68 307 11.3 0.0 0.00 0.00 0.00 81 1016.3
20260830212022 68 323 11.3 0.0 0.00 0.00 0.00 81 1016.2
20260830211522 69 311 13.0 0.0 0.00 0.00 0.00 78 1016.1
20260830211022 69 292 14.8 0.0 0.00 0.00 0.00 80 1016.1
20260830210521 70 292 15.6 0.0 0.00 0.00 0.00 80 1016.2
20260830210024 70 276 16.5 0.0 0.00 0.00 0.00 80 1016.2
20260830205521 71 288 16.5 0.0 0.00 0.00 0.00 78 1016.1
20260830205020 71 273 16.5 0.0 0.00 0.00 0.00 77 1016.0
20260830204520 72 282 17.4 0.0 0.00 0.00 0.00 77 1016.0
20260830204020 72 275 15.6 0.0 0.00 0.00 0.00 77 1015.8
20260830203520 72 265 13.0 0.0 0.00 0.00 0.00 79 1015.9
20260830203019 72 247 10.4 0.0 0.00 0.00 0.00 78 1015.8
20260830202519 72 242 7.8 0.0 0.00 0.00 0.00 75 1015.7
20260830202019 73 239 6.1 0.0 0.00 0.00 0.00 72 1015.6
20260830201518 73 221 6.1 0.0 0.00 0.00 0.00 72 1015.6
20260830201017 73 238 6.1 0.0 0.00 0.00 0.00 70 1015.7
20260830200518 74 237 6.1 0.0 0.00 0.00 0.00 71 1015.7
20260830200017 74 225 5.2 0.0 0.00 0.00 0.00 70 1015.6
20260830195517 75 238 5.2 0.0 0.00 0.00 0.00 70 1015.6
20260830195017 75 232 6.1 0.0 0.00 0.00 0.00 69 1015.6
20260830194521 76 248 4.3 0.0 0.00 0.00 0.00 68 1015.6
20260830194016 76 250 3.5 0.0 0.00 0.00 0.00 68 1015.6
20260830193517 76 242 3.5 0.0 0.00 0.00 0.00 70 1015.6
20260830193016 76 256 4.3 0.0 0.00 0.00 0.00 70 1015.6
20260830192515 76 214 3.5 0.0 0.00 0.00 0.00 70 1015.7
20260830192015 76 221 3.5 0.0 0.00 0.00 0.00 70 1015.8
20260830191519 76 227 3.5 0.0 0.00 0.00 0.00 66 1015.7
20260830191014 76 232 3.5 0.0 0.00 0.00 0.00 67 1015.8
20260830190514 76 248 3.5 0.0 0.00 0.00 0.00 66 1015.8
20260830190013 76 248 3.5 0.0 0.00 0.00 0.00 71 1015.9
20260830185515 76 252 3.5 0.0 0.00 0.00 0.00 69 1016.1
20260830185012 75 250 3.5 0.0 0.00 0.00 0.00 68 1016.1
20260830184515 75 238 3.5 0.0 0.00 0.00 0.00 69 1016.1
20260830184010 75 216 3.5 0.0 0.00 0.00 0.00 65 1016.3
20260830183512 75 238 2.6 0.0 0.00 0.00 0.00 67 1016.3
20260830183009 75 235 2.6 0.0 0.00 0.00 0.00 67 1016.4
20260830182508 75 226 3.5 0.0 0.00 0.00 0.00 68 1016.4
20260830182007 75 217 3.5 0.0 0.00 0.00 0.00 72 1016.4
20260830181507 75 242 4.3 0.0 0.00 0.00 0.00 70 1016.6
20260830181008 74 239 4.3 0.0 0.00 0.00 0.00 68 1016.6
20260830180504 74 242 4.3 0.0 0.00 0.00 0.00 67 1016.6
20260830180003 74 244 4.3 0.0 0.00 0.00 0.00 73 1016.7
20260830175502 73 222 4.3 0.0 0.00 0.00 0.00 72 1016.9
20260830175002 73 242 3.5 0.0 0.00 0.00 0.00 73 1016.8
20260830174604 72 229 3.5 0.0 0.00 0.00 0.00 74 1016.9
20260830174058 72 248 3.5 0.0 0.00 0.00 0.00 73 1017.0
20260830173557 72 235 2.6 0.0 0.00 0.00 0.00 76 1017.0
20260830173105 71 233 1.7 0.0 0.00 0.00 0.00 74 1017.0
20260830172556 71 225 1.7 0.0 0.00 0.00 0.00 74 1017.0
20260830172056 71 223 1.7 0.0 0.00 0.00 0.00 76 1016.9
20260830171629 71 207 1.7 0.0 0.00 0.00 0.00 73 1017.0
20260830171054 71 225 0.9 0.0 0.00 0.00 0.00 77 1017.1
20260830170554 71 182 0.9 0.0 0.00 0.00 0.00 76 1017.3
20260830170052 70 227 0.9 0.0 0.00 0.00 0.00 77 1017.4
20260830165555 70 228 0.9 0.0 0.00 0.00 0.00 74 1017.4
20260830165051 70 226 1.7 0.0 0.00 0.00 0.00 75 1017.5
20260830164551 70 222 2.6 0.0 0.00 0.00 0.00 73 1017.5
20260830164051 70 221 2.6 0.0 0.00 0.00 0.00 73 1017.5
20260830163551 70 227 0.9 0.0 0.00 0.00 0.00 75 1017.4
20260830163052 70 170 0.9 0.0 0.00 0.00 0.00 75 1017.5
20260830162551 70 222 1.7 0.0 0.00 0.00 0.00 74 1017.4
20260830162048 70 225 1.7 0.0 0.00 0.00 0.00 73 1017.5
20260830161549 70 211 0.9 0.0 0.00 0.00 0.00 74 1017.5
20260830161048 70 213 0.9 0.0 0.00 0.00 0.00 74 1017.6
20260830160547 70 178 0.9 0.0 0.00 0.00 0.00 74 1017.7
20260830160046 69 217 0.9 0.0 0.00 0.00 0.00 77 1017.8
20260830155547 69 220 0.9 0.0 0.00 0.00 0.00 77 1017.9
20260830155050 69 213 0.9 0.0 0.00 0.00 0.00 77 1018.0
20260830154544 69 146 0.9 0.0 0.00 0.00 0.00 76 1018.2
20260830154045 69 193 0.9 0.0 0.00 0.00 0.00 74 1018.3
20260830153543 69 211 0.9 0.0 0.00 0.00 0.00 73 1018.3
20260830153042 69 217 0.9 0.0 0.00 0.00 0.00 74 1018.4
20260830152541 69 221 0.9 0.0 0.00 0.00 0.00 75 1018.4
20260830152045 69 211 0.9 0.0 0.00 0.00 0.00 71 1018.5
20260830151544 69 227 1.7 0.0 0.00 0.00 0.00 73 1018.4
20260830151040 69 215 0.9 0.0 0.00 0.00 0.00 75 1018.5
20260830150539 68 229 0.9 0.0 0.00 0.00 0.00 73 1018.4
20260830150040 68 204 0.9 0.0 0.00 0.00 0.00 77 1018.5
20260830145536 68 145 1.7 0.0 0.00 0.00 0.00 78 1018.4
20260830145038 68 192 0.9 0.0 0.00 0.00 0.00 78 1018.4
20260830144543 67 155 0.9 0.0 0.00 0.00 0.00 78 1018.3
20260830144035 67 169 0.9 0.0 0.00 0.00 0.00 78 1018.3
20260830143533 67 217 0.0 0.0 0.00 0.00 0.00 78 1018.3
20260830143037 67 217 0.0 0.0 0.00 0.00 0.00 78 1018.5
20260830142531 67 218 0.9 0.0 0.00 0.00 0.00 77 1018.6
20260830142031 66 218 1.7 0.0 0.00 0.00 0.00 77 1018.4
20260830141532 66 227 0.9 0.0 0.00 0.00 0.00 79 1018.6
20260830141028 66 139 0.0 0.0 0.00 0.00 0.00 82 1018.5
20260830140527 65 223 0.0 0.0 0.00 0.00 0.00 83 1018.5
20260830140026 65 214 0.0 0.0 0.00 0.00 0.00 84 1018.4
20260830135528 64 214 0.9 0.0 0.00 0.00 0.00 86 1018.6
20260830135024 64 211 0.9 0.0 0.00 0.00 0.00 86 1018.7
20260830134534 64 200 0.9 0.0 0.00 0.00 0.00 87 1018.8
20260830134022 63 165 0.9 0.0 0.00 0.00 0.00 88 1018.7
20260830133522 63 165 0.0 0.0 0.00 0.00 0.00 88 1018.7
20260830133021 63 164 0.9 0.0 0.00 0.00 0.00 89 1018.8
20260830132520 63 155 0.0 0.0 0.00 0.00 0.00 90 1018.7
20260830132019 63 142 0.9 0.0 0.00 0.00 0.00 89 1018.7
20260830131520 62 142 1.7 0.0 0.00 0.00 0.00 90 1018.7
20260830131018 62 133 2.6 0.0 0.00 0.00 0.00 91 1018.7
20260830130516 62 141 3.5 0.0 0.00 0.00 0.00 91 1018.6
20260830130016 62 126 2.6 0.0 0.00 0.00 0.00 92 1018.7
20260830125515 61 146 0.9 0.0 0.00 0.00 0.00 93 1018.9
20260830125013 61 142 0.9 0.0 0.00 0.00 0.00 93 1019.1
20260830124512 60 142 0.9 0.0 0.00 0.00 0.00 94 1019.2
20260830124011 60 142 0.9 0.0 0.00 0.00 0.00 94 1019.2
20260830123511 60 142 1.7 0.0 0.00 0.00 0.00 94 1019.1
20260830123021 59 140 0.9 0.0 0.00 0.00 0.00 94 1019.2
20260830122509 59 140 0.9 0.0 0.00 0.00 0.00 94 1019.1
20260830122008 59 140 0.9 0.0 0.00 0.00 0.00 94 1019.1
20260830121507 59 140 0.0 0.0 0.00 0.00 0.00 94 1019.0
20260830121006 58 140 0.0 0.0 0.00 0.00 0.00 95 1019.1
20260830120505 58 140 0.9 0.0 0.00 0.00 0.00 95 1019.0
20260830120005 58 140 1.7 0.0 0.00 0.00 0.00 95 1018.9
20260830115504 58 139 1.7 0.0 0.00 0.00 0.00 94 1018.9
20260830115002 57 140 0.9 0.0 0.00 0.00 0.00 94 1018.9
20260830114501 57 139 0.9 0.0 0.00 0.00 0.00 94 1019.0
20260830114001 57 138 0.9 0.0 0.00 0.00 0.00 94 1019.0
20260830113500 57 139 3.5 0.0 0.00 0.00 0.00 94 1018.9
20260830113100 57 134 3.5 0.0 0.00 0.00 0.00 94 1018.9
20260830112559 56 132 4.3 0.0 0.00 0.00 0.00 94 1019.0
20260830112059 56 128 4.3 0.0 0.00 0.00 0.00 94 1019.0
20260830111558 56 130 3.5 0.0 0.00 0.00 0.00 94 1019.0
20260830111058 56 134 0.9 0.0 0.00 0.00 0.00 94 1019.1
20260830110557 56 134 0.0 0.0 0.00 0.00 0.00 93 1019.2
20260830105558 55 132 0.0 0.0 0.00 0.00 0.00 93 1019.4
20260830105056 55 132 0.0 0.0 0.00 0.00 0.00 93 1019.4
20260830104557 55 133 0.0 0.0 0.00 0.00 0.00 93 1019.3
20260830104059 55 134 0.0 0.0 0.00 0.00 0.00 93 1019.4
20260830103556 55 134 0.9 0.0 0.00 0.00 0.00 93 1019.4
20260830103056 55 134 1.7 0.0 0.00 0.00 0.00 93 1019.3
20260830102555 55 134 3.5 0.0 0.00 0.00 0.00 93 1019.3
20260830102055 55 134 3.5 0.0 0.00 0.00 0.00 93 1019.3
20260830101555 55 134 4.3 0.0 0.00 0.00 0.00 93 1019.3
20260830101058 55 135 4.3 0.0 0.00 0.00 0.00 93 1019.2
20260830100558 55 132 4.3 0.0 0.00 0.00 0.00 92 1019.2
20260830100107 55 135 4.3 0.0 0.00 0.00 0.00 92 1019.2
20260830095557 55 136 4.3 0.0 0.00 0.00 0.00 92 1019.2
20260830095057 55 134 3.5 0.0 0.00 0.00 0.00 92 1019.4
20260830094554 55 136 3.5 0.0 0.00 0.00 0.00 92 1019.4
20260830094052 55 135 3.5 0.0 0.00 0.00 0.00 92 1019.3
20260830093552 55 133 4.3 0.0 0.00 0.00 0.00 92 1019.3
20260830093052 55 132 4.3 0.0 0.00 0.00 0.00 92 1019.3
20260830092555 55 138 4.3 0.0 0.00 0.00 0.00 92 1019.3
20260830092056 55 133 4.3 0.0 0.00 0.00 0.00 91 1019.4
20260830091552 55 134 3.5 0.0 0.00 0.00 0.00 91 1019.4
20260830091052 55 132 3.5 0.0 0.00 0.00 0.00 91 1019.5
20260830090551 55 130 3.5 0.0 0.00 0.00 0.00 91 1019.5
20260830090051 55 129 2.6 0.0 0.00 0.00 0.00 91 1019.4
20260830085551 55 134 3.5 0.0 0.00 0.00 0.00 91 1019.4
20260830085051 55 134 4.3 0.0 0.00 0.00 0.00 91 1019.4
20260830084618 55 132 4.3 0.0 0.00 0.00 0.00 92 1019.5
20260830084052 55 132 3.5 0.0 0.00 0.00 0.00 92 1019.5
20260830083551 55 130 2.6 0.0 0.00 0.00 0.00 92 1019.6
20260830083050 55 132 2.6 0.0 0.00 0.00 0.00 92 1019.6